[[{"header":{"parameterUnit":"m.s-1","parameterCategory":1,"la1":30.2991,"la2":30.254,"lo1":-89.0895,"lo2":-89.0444,"dy":0.0017,"dx":0.0017,"nx":28,"ny":28,"refTime":"2024-08-04T03:00:00:Z","depth":0,"parameterNumber":2,"parameterNumberName":"U-component_of_WINDS"},"data":[0,0,0,0,0,0,0,0,0,0,0,0,0,0,0,0,0,0,0,0,0,0,0,0,0,0,0,0,0,0,0,0,0,0,0,0,0,0,0,0,0,0,0,0,0,0,0,0,0,0,0,0,0,0,0,0,0,0,-1.3874,-1.3874,0,-1.3863,-1.3863,-1.3863,-1.3795,-1.3793,-1.3791,-1.379,-1.3784,-1.3786,-1.3787,0,0,0,0,0,0,0,0,0,0,0,0,0,-1.3843,-1.3844,-1.3874,-1.3874,-1.3874,-1.3863,-1.3863,-1.3863,-1.3795,-1.3793,-1.3791,-1.3789,-1.3784,-1.3785,-1.3787,0,0,0,0,0,0,0,0,0,0,0,0,0,-1.3847,-1.3845,-1.3874,-1.3838,-1.3835,-1.3863,-1.3863,-1.3863,-1.3795,-1.3793,-1.379,-1.3788,-1.3783,-1.3785,-1.3787,-1.3851,0,0,-1.3794,-1.3795,0,0,0,0,0,0,0,0,-1.3847,-1.3848,-1.3844,-1.3841,-1.3837,-1.3827,-1.385,-1.3859,-1.3796,-1.3811,-1.379,-1.3787,-1.3801,-1.3801,-1.3805,-1.385,-1.385,-1.3794,-1.3795,-1.3796,-1.3797,0,0,0,0,0,0,0,-1.3847,-1.3849,-1.387,-1.3844,-1.384,-1.3825,-1.3823,-1.3852,-1.382,-1.3809,-1.3804,-1.3803,-1.3799,-1.3803,-1.3805,-1.385,-1.3794,-1.3796,-1.3797,-1.3798,-1.3953,-1.3956,0,0,0,0,0,0,-1.3851,-1.3849,-1.387,-1.3869,-1.3836,-1.3828,-1.3825,-1.3833,-1.382,-1.3815,-1.3806,-1.38,-1.3801,-1.3802,-1.3804,-1.3882,-1.3796,-1.3798,-1.3799,-1.395,-1.3953,-1.3957,0,0,0,0,0,0,-1.385,-1.3853,-1.387,-1.3858,-1.3859,-1.3831,-1.384,-1.3834,-1.3839,-1.3817,-1.3812,-1.3816,-1.3799,-1.3801,-1.384,-1.388,-1.3799,-1.3801,-1.3947,-1.3951,-1.3955,-1.4035,0,0,0,0,0,0,-1.385,-1.3853,-1.3875,-1.3859,-1.386,-1.3905,-1.3843,-1.3836,-1.3842,-1.3835,-1.3825,-1.3821,-1.3797,-1.3838,-1.3843,-1.3882,-1.3803,-1.3943,-1.3949,-1.3954,-1.4028,-1.4041,-1.4052,0,0,0,0,0,-1.3849,-1.3898,-1.3877,-1.388,-1.3886,-1.3907,-1.3908,-1.3878,-1.3845,-1.3869,-1.3855,-1.3821,-1.3874,-1.3842,-1.3847,-1.3888,-1.394,-1.3947,-1.3953,-1.4023,-1.4039,-1.4052,0,0,0,0,0,0,-1.3921,-1.3895,-1.3871,-1.3916,-1.3914,-1.3896,-1.3924,-1.3895,-1.3904,-1.3897,-1.3861,-1.386,-1.3906,-1.39,-1.3865,-1.3951,-1.3902,-1.391,-1.3953,-1.3968,-1.398,-1.3982,-1.3804,0,0,0,0,0,-1.3942,-1.3959,-1.3936,-1.3978,-1.3978,-1.3952,-1.3959,-1.3937,-1.3935,-1.3934,-1.3923,-1.3924,-1.3942,-1.3954,-1.3968,-1.4026,-1.4026,-1.4057,-1.4069,-1.4079,-1.4087,-1.4123,-1.4138,-1.3978,-1.3978,-1.3977,0,0,-1.3985,-1.3973,-1.3987,-1.3992,-1.3988,-1.401,-1.3951,-1.3976,-1.3993,-1.3938,-1.3976,-1.3968,-1.3967,-1.4018,-1.4039,-1.4014,-1.4131,-1.4087,-1.4095,-1.4098,-1.4131,-1.4146,-1.416,-1.3982,-1.3981,-1.398,0,0,-1.4077,-1.4068,-1.4104,-1.4101,-1.4096,-1.4078,-1.4087,-1.4074,-1.4067,-1.4103,-1.4064,-1.4085,-1.4114,-1.4117,-1.4122,-1.4219,-1.419,-1.4225,-1.4287,-1.4323,-1.4336,-1.4347,-1.4386,-1.44,-1.4232,-1.4232,-1.4232,0,-1.4133,-1.4162,-1.4126,-1.4155,-1.4161,-1.4111,-1.415,-1.415,-1.4151,-1.4157,-1.4128,-1.4168,-1.4163,-1.4216,-1.424,-1.4244,-1.4257,-1.4227,-1.4336,-1.4347,-1.4357,-1.4394,-1.4409,-1.4237,-1.4236,-1.4236,-1.4235,0,-1.4233,-1.4254,-1.4284,-1.4286,-1.4295,-1.4328,-1.4302,-1.4315,-1.4293,-1.4279,-1.432,-1.4313,-1.4328,-1.4338,-1.4316,-1.439,-1.4375,-1.4342,-1.4292,-1.4378,-1.4412,-1.4426,-1.4244,-1.4242,-1.424,-1.4239,0,0,-1.437,-1.4353,-1.4365,-1.4367,-1.4359,-1.4376,-1.441,-1.4423,-1.4438,-1.444,-1.4471,-1.4498,-1.4469,-1.4475,-1.4453,-1.4483,-1.4567,-1.4447,-1.4446,-1.4474,-1.4655,-1.4683,-1.4699,-1.4547,-1.4549,-1.4551,-1.4656,0,-1.4461,-1.4515,-1.4486,-1.4545,-1.4567,-1.4522,-1.4552,-1.4552,-1.4541,-1.4561,-1.4549,-1.4572,-1.4528,-1.4532,-1.456,-1.4551,-1.4604,-1.4542,-1.4579,-1.4581,-1.4584,-1.4717,-1.4745,-1.4845,-1.4669,-1.4671,-1.4673,0,-1.4575,-1.4583,-1.4644,-1.4636,-1.4644,-1.4671,-1.4684,-1.4701,-1.4703,-1.4693,-1.4702,-1.4674,-1.471,-1.4659,-1.4711,-1.4671,-1.4684,-1.4682,-1.4685,-1.469,-1.4634,-1.473,-1.4875,-1.4892,-1.4693,-1.4691,-1.469,0,-1.4675,-1.47,-1.4741,-1.4744,-1.4734,-1.4755,-1.4753,-1.4751,-1.4762,-1.4774,-1.4782,-1.4798,-1.4808,-1.4823,-1.4802,-1.4766,-1.4859,-1.4805,-1.4857,-1.4858,-1.4881,-1.488,-1.5035,-1.4883,-1.4882,-1.4882,-1.4882,0,-1.4782,-1.4823,-1.4787,-1.4812,-1.4858,-1.4826,-1.4873,-1.4866,-1.4866,-1.4892,-1.4854,-1.488,-1.4849,-1.4874,-1.4858,-1.4907,-1.491,-1.4907,-1.4903,-1.4913,-1.4914,-1.4924,-1.4918,-1.4886,-1.4885,-1.4884,-1.4884,0,-1.4902,-1.4878,-1.4921,-1.4909,-1.4907,-1.4942,-1.4933,-1.4959,-1.4946,-1.498,-1.4987,-1.4968,-1.4995,-1.4975,-1.5002,-1.4992,-1.5058,-1.5042,-1.5058,-1.5055,-1.5109,-1.5106,-1.5278,-1.5302,-1.5131,-1.5133,-1.5134,0,-1.4973,-1.5004,-1.4995,-1.5009,-1.5009,-1.5032,-1.5044,-1.5014,-1.5029,-1.5035,-1.5062,-1.5085,-1.5103,-1.5151,-1.5141,-1.5164,-1.5151,-1.521,-1.5154,-1.5165,-1.5158,-1.5158,-1.5163,-1.5222,-1.5224,-1.5226,-1.5227,0,-1.5105,-1.5093,-1.511,-1.5125,-1.5139,-1.515,-1.5157,-1.5172,-1.5142,-1.5161,-1.5189,-1.5203,-1.5232,-1.5258,-1.5277,-1.5278,-1.5251,-1.5244,-1.5258,-1.527,-1.528,-1.5281,-1.5093,-1.5241,-1.524,-1.5239,-1.5238,-1.5237,-1.5206,-1.5233,-1.5232,-1.5254,-1.5256,-1.5265,-1.529,-1.528,-1.5302,-1.5322,-1.5304,-1.5338,-1.5344,-1.5367,-1.5372,-1.5401,-1.5377,-1.5396,-1.5402,-1.5408,-1.5418,-1.5272,-1.5404,-1.5403,-1.5403,-1.5403,-1.5402,0,-1.534,-1.5337,-1.5357,-1.537,-1.5388,-1.5357,-1.5365,-1.5384,-1.5414,-1.542,-1.5439,-1.5473,-1.55,-1.5493,-1.5518,-1.5543,-1.5532,-1.5551,-1.5551,-1.5553,-1.5435,-1.5423,-1.5561,-1.5561,-1.5561,-1.5561,-1.5561,-1.5561,-1.5411,-1.5457,-1.5445,-1.5493,-1.5491,-1.5523,-1.5531,-1.5541,-1.5546,-1.5586,-1.5607,-1.5602,-1.5605,-1.5631,-1.5655,-1.5653,-1.5666,-1.5692,-1.5686,-1.5576,-1.5561,-1.5546,-1.5534,-1.5694,-1.5694,-1.5802,-1.5803,-1.5804]},{"header":{"parameterUnit":"m.s-1","parameterCategory":1,"la1":30.2991,"la2":30.254,"lo1":-89.0895,"lo2":-89.0444,"dy":0.0017,"dx":0.0017,"nx":28,"ny":28,"refTime":"2024-08-04T03:00:00:Z","depth":0,"parameterNumber":3,"parameterNumberName":"V-component_of_WINDS"},"data":[0,0,0,0,0,0,0,0,0,0,0,0,0,0,0,0,0,0,0,0,0,0,0,0,0,0,0,0,0,0,0,0,0,0,0,0,0,0,0,0,0,0,0,0,0,0,0,0,0,0,0,0,0,0,0,0,0,0,2.2112,2.2112,0,2.2156,2.2156,2.2157,2.2189,2.2189,2.2189,2.219,2.2232,2.2232,2.2233,0,0,0,0,0,0,0,0,0,0,0,0,0,2.205,2.2051,2.2112,2.2112,2.2113,2.2156,2.2156,2.2157,2.2189,2.2189,2.2189,2.219,2.2231,2.2232,2.2233,0,0,0,0,0,0,0,0,0,0,0,0,0,2.2084,2.2052,2.2112,2.2134,2.2136,2.2156,2.2156,2.2157,2.2189,2.2189,2.219,2.219,2.2231,2.2232,2.2233,2.2233,0,0,2.2237,2.2238,0,0,0,0,0,0,0,0,2.2082,2.2086,2.213,2.2132,2.2135,2.2167,2.215,2.2183,2.2189,2.2169,2.219,2.219,2.221,2.2213,2.222,2.2235,2.2237,2.2237,2.2238,2.2239,2.2239,0,0,0,0,0,0,0,2.208,2.2084,2.2129,2.2131,2.2134,2.214,2.2146,2.2157,2.2186,2.217,2.2173,2.2178,2.2211,2.2219,2.2221,2.2237,2.2237,2.2239,2.2239,2.224,2.2253,2.2252,0,0,0,0,0,0,2.2074,2.2082,2.2128,2.213,2.2109,2.2141,2.2147,2.2157,2.2186,2.2191,2.2178,2.2179,2.2216,2.222,2.2223,2.2223,2.2239,2.224,2.2241,2.2253,2.2253,2.2252,0,0,0,0,0,0,2.2073,2.2078,2.2126,2.2107,2.2114,2.2142,2.2152,2.2157,2.2165,2.2192,2.2197,2.218,2.2217,2.2221,2.223,2.2225,2.2241,2.2242,2.2254,2.2253,2.2252,2.2224,0,0,0,0,0,0,2.2071,2.2077,2.2079,2.2107,2.2115,2.2134,2.2152,2.2158,2.2167,2.217,2.2195,2.22,2.2217,2.2228,2.2231,2.2227,2.2243,2.2254,2.2253,2.2252,2.2226,2.2223,2.222,0,0,0,0,0,2.2069,2.2069,2.2079,2.2084,2.2117,2.2133,2.2138,2.2159,2.2167,2.2168,2.2184,2.2199,2.2225,2.2229,2.2233,2.2229,2.2254,2.2253,2.2253,2.2227,2.2223,2.222,0,0,0,0,0,0,2.2038,2.2073,2.2084,2.2094,2.211,2.2139,2.214,2.2154,2.2169,2.217,2.2195,2.22,2.2206,2.2219,2.2222,2.2229,2.2242,2.2241,2.2221,2.2218,2.2215,2.2211,2.2244,0,0,0,0,0,2.2033,2.2045,2.2074,2.2079,2.2087,2.2112,2.212,2.2135,2.2153,2.216,2.2178,2.2193,2.2205,2.2212,2.2224,2.2228,2.2233,2.2227,2.2224,2.2222,2.2221,2.2222,2.2219,2.2249,2.2249,2.2249,0,0,2.2022,2.2042,2.2048,2.2074,2.2088,2.2098,2.2118,2.2128,2.2135,2.2161,2.2171,2.2184,2.2203,2.2209,2.2213,2.222,2.2214,2.2221,2.2219,2.2219,2.2221,2.2218,2.2215,2.2248,2.2248,2.2248,0,0,2.2006,2.2023,2.2029,2.2043,2.2065,2.2082,2.2083,2.2109,2.2119,2.213,2.2149,2.2157,2.2177,2.2189,2.2198,2.2186,2.2199,2.2189,2.2174,2.2175,2.2172,2.217,2.2164,2.2162,2.2188,2.2188,2.2188,0,2.1989,2.2006,2.203,2.2039,2.2048,2.2073,2.2078,2.209,2.2115,2.212,2.2128,2.2153,2.2168,2.2176,2.2173,2.218,2.218,2.2186,2.2171,2.2169,2.2168,2.2162,2.216,2.2187,2.2187,2.2187,2.2187,0,2.1983,2.1994,2.1996,2.202,2.203,2.2037,2.206,2.2067,2.2081,2.2096,2.2105,2.2123,2.2139,2.2142,2.2155,2.2152,2.2155,2.2167,2.2179,2.2163,2.2158,2.2156,2.2185,2.2185,2.2186,2.2186,0,0,2.195,2.1986,2.1986,2.1996,2.2022,2.203,2.2037,2.2054,2.2058,2.2074,2.208,2.2096,2.2106,2.2116,2.2131,2.2131,2.2118,2.2143,2.2143,2.2136,2.2113,2.2103,2.2101,2.2127,2.2127,2.2127,2.2111,0,2.1937,2.1952,2.1973,2.198,2.199,2.2013,2.2018,2.2034,2.2048,2.2057,2.2072,2.2082,2.2096,2.2102,2.2104,2.2119,2.2114,2.2121,2.2131,2.2131,2.2124,2.2099,2.2089,2.2073,2.2109,2.2109,2.2109,0,2.1924,2.1939,2.1947,2.1971,2.1976,2.1981,2.1996,2.2006,2.2023,2.2033,2.2043,2.2059,2.2066,2.2078,2.2087,2.2091,2.2097,2.2105,2.2104,2.2105,2.2118,2.2097,2.2068,2.2065,2.2107,2.2107,2.2107,0,2.1897,2.1919,2.1927,2.1935,2.1963,2.1966,2.1977,2.1995,2.2003,2.2016,2.2021,2.2035,2.2042,2.2051,2.207,2.2077,2.2076,2.209,2.2082,2.2082,2.208,2.208,2.2051,2.2086,2.2086,2.2086,2.2086,0,2.188,2.1884,2.1915,2.1919,2.1924,2.1947,2.195,2.1964,2.1979,2.1985,2.2006,2.2011,2.2036,2.2043,2.2057,2.2061,2.2065,2.2072,2.2075,2.2069,2.2068,2.2072,2.2073,2.2085,2.2085,2.2086,2.2086,0,2.1851,2.1872,2.1881,2.1907,2.1913,2.1915,2.1936,2.194,2.1955,2.1963,2.1966,2.1989,2.1999,2.2018,2.2033,2.2043,2.2043,2.205,2.2037,2.2039,2.203,2.203,2.2001,2.1998,2.2036,2.2036,2.2036,0,2.1838,2.1842,2.1867,2.1873,2.1884,2.1894,2.1902,2.1924,2.1931,2.195,2.1952,2.1963,2.1973,2.1988,2.2005,2.2016,2.2023,2.2012,2.2025,2.2018,2.2021,2.2019,2.2019,2.2009,2.2008,2.2008,2.2007,0,2.1813,2.1823,2.1834,2.1848,2.1857,2.1869,2.1883,2.1886,2.1911,2.1918,2.1928,2.1936,2.1951,2.1962,2.1975,2.1986,2.2,2.2003,2.2002,2.1995,2.1987,2.1989,2.2028,2.2004,2.2004,2.2004,2.2004,2.2005,2.179,2.1794,2.1812,2.1823,2.1835,2.1847,2.1852,2.1867,2.1876,2.1891,2.1903,2.1912,2.1927,2.1947,2.1957,2.1963,2.197,2.1968,2.1968,2.1966,2.1963,2.1987,2.1966,2.1966,2.1966,2.1966,2.1966,0,2.1765,2.1777,2.1787,2.1805,2.1813,2.1827,2.1842,2.1847,2.1855,2.1869,2.1878,2.1889,2.1899,2.1917,2.1928,2.1929,2.1936,2.1931,2.193,2.1932,2.1957,2.1956,2.1925,2.1925,2.1925,2.1925,2.1925,2.1925,2.1752,2.1758,2.177,2.1781,2.1793,2.1803,2.1809,2.1819,2.183,2.1842,2.185,2.1862,2.1876,2.1889,2.1897,2.1902,2.1905,2.1898,2.1904,2.1927,2.1931,2.1934,2.1934,2.1898,2.1898,2.1878,2.1878,2.1878]}]]